Simultaneous Nadir Overpasses (SNOs) Predictions

Prediction of SNOs between GOES-16 and NOAA-20 Satellite Orbit:

Table of predicted SNOs for the next 14.0 days since TLE Epoch: 3/6/2021
Index Date Time (GOES-16) GOES-16 Lat,Lon NOAA-20 Lat,Lon Distance(km) Time Diff (sec)
1 03/06/2021 18:26:32 0.04, -75.20 -0.06, -75.69 55.30 80
2 03/07/2021 18:10:26 0.04, -75.20 0.92, -71.15 461.29 80
3 03/09/2021 06:32:15 -0.03, -75.19 0.21, -76.42 139.48 80
4 03/10/2021 06:10:49 -0.02, -75.19 -0.76, -71.88 377.44 80
5 03/11/2021 18:32:45 0.01, -75.21 -0.40, -77.19 224.83 80
6 03/12/2021 18:16:40 0.01, -75.22 0.58, -72.64 292.84 80
7 03/14/2021 06:38:27 -0.01, -75.23 0.61, -77.91 305.87 80
8 03/15/2021 06:17:03 -0.01, -75.24 -0.42, -73.38 211.90 80
9 03/16/2021 18:38:59 0.01, -75.26 -0.73, -78.68 389.60 80
10 03/17/2021 18:22:54 0.01, -75.28 0.25, -74.14 128.74 80
11 03/19/2021 06:44:42 -0.01, -75.30 0.89, -79.42 468.72 80
